SR5NLK-1 Weather Reports


time (UTC)temp
C
wind
direction
speed
KPH
gust
KPH
rain 1hr
cm
rain 24hr
cm
rain mn
cm
humidity
%
barometer
mb
20260506222730 16 135 3.2 4.8 0.00 0.00 0.00 66 1019.8
20260506222229 16 112 1.6 6.4 0.00 0.00 0.00 66 1097.2
20260506221828 16 135 4.8 4.8 0.00 0.00 0.00 66 1019.9
20260506221729 16 112 4.8 4.8 0.00 0.00 0.00 66 1049.1
20260506221229 16 135 3.2 3.2 0.00 0.00 0.00 66 1045.9
20260506220729 16 112 0.0 3.2 0.00 0.00 0.00 66 1052.2
20260506220229 16 157 0.0 6.4 0.00 0.00 0.00 66 1007.3
20260506215729 16 112 3.2 4.8 0.00 0.00 0.00 66 1046.0
20260506215229 16 112 1.6 1.6 0.00 0.00 0.00 66 1013.5
20260506214729 16 112 0.0 0.0 0.00 0.00 0.00 66 1039.7
20260506214528 16 135 0.0 0.0 0.00 0.00 0.00 65 1058.5
20260506214229 16 135 0.0 1.6 0.00 0.00 0.00 65 984.1
20260506213729 16 112 0.0 0.0 0.00 0.00 0.00 65 1013.5
20260506213229 16 45 0.0 0.0 0.00 0.00 0.00 64 962.3
20260506212729 16 45 0.0 0.0 0.00 0.00 0.00 64 1016.6
20260506212229 16 112 0.0 0.0 0.00 0.00 0.00 64 1100.3
20260506211729 16 112 0.0 1.6 0.00 0.00 0.00 63 1052.1
20260506211228 16 135 0.0 0.0 0.00 0.00 0.00 63 1016.6
20260506210729 16 112 0.0 3.2 0.00 0.00 0.00 63 1070.9
20260506210229 16 90 0.0 3.2 0.00 0.00 0.00 63 967.4
20260506205729 16 112 3.2 4.8 0.00 0.00 0.00 63 1055.4
20260506205229 17 135 4.8 4.8 0.00 0.00 0.00 62 1094.0
20260506205214 17 112 0.0 3.2 0.00 0.00 0.00 61 1045.9
20260506204729 17 112 1.6 4.8 0.00 0.00 0.00 62 971.7
20260506204229 17 112 0.0 3.2 0.00 0.00 0.00 61 1045.9
20260506203928 17 112 1.6 3.2 0.00 0.00 0.00 61 1049.1
20260506203729 17 135 3.2 3.2 0.00 0.00 0.00 61 1001.0
20260506203229 17 112 0.0 0.0 0.00 0.00 0.00 60 1010.4
20260506202729 17 135 0.0 3.2 0.00 0.00 0.00 60 1061.6
20260506202229 17 112 1.6 3.2 0.00 0.00 0.00 60 1055.4
20260506201729 17 90 0.0 3.2 0.00 0.00 0.00 59 1026.0
20260506201229 17 157 0.0 1.6 0.00 0.00 0.00 59 1095.8
20260506200729 18 112 0.0 1.6 0.00 0.00 0.00 59 1087.8
20260506200628 18 112 0.0 1.6 0.00 0.00 0.00 59 968.6
20260506200229 18 135 0.0 3.2 0.00 0.00 0.00 59 1025.9
20260506195729 18 112 0.0 1.6 0.00 0.00 0.00 58 1090.9
20260506195229 18 135 0.0 3.2 0.00 0.00 0.00 58 968.6
20260506194729 18 90 1.6 3.2 0.00 0.00 0.00 57 1052.2
20260506194230 18 112 3.2 3.2 0.00 0.00 0.00 57 968.6
20260506193729 18 135 0.0 0.0 0.00 0.00 0.00 56 956.0
20260506193328 18 112 0.0 0.0 0.00 0.00 0.00 56 1062.5
20260506193230 18 112 0.0 0.0 0.00 0.00 0.00 56 1052.1
20260506192729 18 112 0.0 0.0 0.00 0.00 0.00 55 1007.3
20260506192229 18 135 0.0 1.6 0.00 0.00 0.00 55 964.0
20260506191730 18 112 0.0 3.2 0.00 0.00 0.00 55 1102.0
20260506191229 18 90 3.2 3.2 0.00 0.00 0.00 54 1052.2
20260506190730 19 112 0.0 1.6 0.00 0.00 0.00 54 1042.8
20260506190230 19 112 0.0 0.0 0.00 0.00 0.00 53 968.6
20260506190029 19 135 0.0 0.0 0.00 0.00 0.00 53 1046.0
20260506185730 19 135 0.0 3.2 0.00 0.00 0.00 53 1046.0
20260506185231 20 135 3.2 3.2 0.00 0.00 0.00 52 1109.7
20260506184730 20 90 0.0 3.2 0.00 0.00 0.00 51 1007.3
20260506184230 20 112 3.2 3.2 0.00 0.00 0.00 51 1090.9
20260506183730 20 22 0.0 1.6 0.00 0.00 0.00 50 1042.8
20260506183230 20 337 0.0 3.2 0.00 0.00 0.00 50 1094.1
20260506182729 20 315 0.0 3.2 0.00 0.00 0.00 50 968.5
20260506182230 21 337 3.2 3.2 0.00 0.00 0.00 49 1087.8
20260506181730 21 315 0.0 3.2 0.00 0.00 0.00 48 965.4
20260506181230 21 292 0.0 3.2 0.00 0.00 0.00 48 1095.2
20260506180730 21 270 0.0 4.8 0.00 0.00 0.00 48 1097.2
20260506180230 22 315 4.8 8.0 0.00 0.00 0.00 47 1002.2
20260506175730 22 315 4.8 8.0 0.00 0.00 0.00 47 1013.1
20260506175429 22 315 6.4 8.0 0.00 0.00 0.00 47 997.8
20260506175230 22 315 8.0 9.7 0.00 0.00 0.00 47 1052.6
20260506174730 22 315 9.7 12.9 0.00 0.00 0.00 47 1039.7
20260506174230 22 292 4.8 11.3 0.00 0.00 0.00 46 1097.2
20260506173730 22 337 8.0 11.3 0.00 0.00 0.00 46 1049.1
20260506173230 23 292 6.4 9.7 0.00 0.00 0.00 46 1078.2
20260506172730 23 315 9.7 11.3 0.00 0.00 0.00 46 1001.0
20260506172230 23 292 11.3 11.3 0.00 0.00 0.00 46 997.9
20260506172129 23 292 8.0 12.9 0.00 0.00 0.00 46 1100.3
20260506171730 23 247 4.8 12.9 0.00 0.00 0.00 46 1090.9
20260506171230 23 292 4.8 12.9 0.00 0.00 0.00 46 1019.7
20260506170730 23 292 8.0 12.9 0.00 0.00 0.00 46 1079.2
20260506170230 23 315 12.9 12.9 0.00 0.00 0.00 46 920.5
20260506165730 23 270 3.2 16.1 0.00 0.00 0.00 45 1013.5
20260506165230 23 315 16.1 16.1 0.00 0.00 0.00 45 929.9
20260506164829 23 315 11.3 19.3 0.00 0.00 0.00 44 1016.5
20260506164730 23 292 19.3 19.3 0.00 0.00 0.00 44 1049.1
20260506164230 24 292 11.3 17.7 0.00 0.00 0.00 44 1007.2
20260506163730 24 270 9.7 14.5 0.00 0.00 0.00 43 1005.5
20260506163230 25 315 14.5 14.5 0.00 0.00 0.00 42 1019.8
20260506162730 25 270 4.8 24.1 0.00 0.00 0.00 42 965.4
20260506162230 25 270 9.7 20.9 0.00 0.00 0.00 42 971.7
20260506161730 25 292 9.7 16.1 0.00 0.00 0.00 42 923.6
20260506161529 25 270 8.0 14.5 0.00 0.00 0.00 42 929.8
20260506161230 25 0 3.2 17.7 0.00 0.00 0.00 42 952.2
20260506160730 25 0 6.4 17.7 0.00 0.00 0.00 42 1013.5
20260506160230 25 292 4.8 22.5 0.00 0.00 0.00 41 998.5
20260506155730 25 292 14.5 19.3 0.00 0.00 0.00 41 1001.0
20260506155230 25 292 4.8 9.7 0.00 0.00 0.00 41 1052.2
20260506154730 25 270 6.4 16.1 0.00 0.00 0.00 41 924.8
20260506154237 25 270 11.3 22.5 0.00 0.00 0.00 1046.0
20260506154229 25 270 11.3 22.5 0.00 0.00 0.00 42 1046.0
20260506153730 25 270 6.4 16.1 0.00 0.00 0.00 41 1039.6
20260506153230 25 270 4.8 16.1 0.00 0.00 0.00 41 1064.7
20260506152730 25 247 4.8 22.5 0.00 0.00 0.00 40 1049.1
20260506152230 26 247 11.3 20.9 0.00 0.00 0.00 39 1015.2
20260506151730 26 270 19.3 19.3 0.00 0.00 0.00 39 1046.0
20260506151230 26 270 9.7 22.5 0.00 0.00 0.00 38 1052.2
20260506150929 26 315 9.7 22.5 0.00 0.00 0.00 38 1042.8
20260506150730 26 270 11.3 20.9 0.00 0.00 0.00 37 1007.3
20260506150230 27 247 17.7 19.3 0.00 0.00 0.00 37 1030.3
20260506145730 27 270 12.9 12.9 0.00 0.00 0.00 36 1010.4
20260506145230 27 270 3.2 14.5 0.00 0.00 0.00 36 974.8
20260506144730 28 225 11.3 22.5 0.00 0.00 0.00 35 933.7
20260506144230 28 270 14.5 19.3 0.00 0.00 0.00 35 959.7
20260506143730 28 202 12.9 16.1 0.00 0.00 0.00 35 977.3
20260506143629 28 202 9.7 19.3 0.00 0.00 0.00 35 1036.6
20260506143230 28 270 11.3 20.9 0.00 0.00 0.00 35 1014.3
20260506142730 27 202 19.3 25.7 0.00 0.00 0.00 36 932.8
20260506142230 27 202 22.5 27.4 0.00 0.00 0.00 36 1094.1
20260506141730 27 202 14.5 30.6 0.00 0.00 0.00 35 1006.6
20260506141230 27 202 16.1 27.4 0.00 0.00 0.00 35 914.2
20260506140731 28 202 19.3 29.0 0.00 0.00 0.00 34 1023.3
20260506140329 28 270 24.1 30.6 0.00 0.00 0.00 34 962.3
20260506140230 28 270 17.7 30.6 0.00 0.00 0.00 34 1016.7
20260506135730 29 157 11.3 20.9 0.00 0.00 0.00 34 957.5
20260506135230 28 270 6.4 19.3 0.00 0.00 0.00 34 1055.4
20260506134730 28 202 19.3 27.4 0.00 0.00 0.00 35 913.3
20260506134230 28 270 9.7 22.5 0.00 0.00 0.00 35 1054.6
20260506133730 27 202 19.3 29.0 0.00 0.00 0.00 36 994.7
20260506133230 27 225 11.3 25.7 0.00 0.00 0.00 36 1041.8
20260506133029 27 270 19.3 24.1 0.00 0.00 0.00 36 1022.6
20260506132730 27 247 19.3 29.0 0.00 0.00 0.00 35 1013.1
20260506132230 27 225 14.5 29.0 0.00 0.00 0.00 35 1016.6
20260506131730 28 180 19.3 19.3 0.00 0.00 0.00 35 1059.3
20260506131230 27 247 6.4 27.4 0.00 0.00 0.00 35 962.0
20260506130730 27 270 9.7 22.5 0.00 0.00 0.00 35 1015.2
20260506130230 28 247 6.4 27.4 0.00 0.00 0.00 35 973.7
20260506125729 28 180 17.7 25.7 0.00 0.00 0.00 35 1042.8
20260506125230 27 225 3.2 30.6 0.00 0.00 0.00 35 1052.2
20260506124730 27 247 9.7 20.9 0.00 0.00 0.00 35 991.6
20260506124230 27 202 19.3 27.4 0.00 0.00 0.00 35 1044.4
20260506123730 27 247 11.3 19.3 0.00 0.00 0.00 35 1034.8
20260506123230 27 202 12.9 27.4 0.00 0.00 0.00 35 1016.4
20260506122730 27 247 12.9 17.7 0.00 0.00 0.00 35 959.6
20260506122429 27 202 14.5 25.7 0.00 0.00 0.00 35 1000.6
20260506122231 28 225 19.3 25.7 0.00 0.00 0.00 34 1039.7
20260506121730 28 202 8.0 24.1 0.00 0.00 0.00 34 1033.7
20260506121230 28 292 12.9 19.3 0.00 0.00 0.00 34 1028.3
20260506120730 28 202 14.5 22.5 0.00 0.00 0.00 34 1010.4
20260506120230 28 270 16.1 24.1 0.00 0.00 0.00 34 1049.1
20260506115730 28 247 9.7 30.6 0.00 0.00 0.00 33 1016.7
20260506115230 29 202 16.1 29.0 0.00 0.00 0.00 33 985.3
20260506115129 29 202 11.3 29.0 0.00 0.00 0.00 33 1075.2
20260506114730 29 202 3.2 24.1 0.00 0.00 0.00 33 971.1
20260506114230 28 225 6.4 27.4 0.00 0.00 0.00 34 1041.0
20260506113730 28 270 9.7 17.7 0.00 0.00 0.00 34 1042.8
20260506113230 28 225 11.3 29.0 0.00 0.00 0.00 33 1046.0
20260506112730 28 202 19.3 32.2 0.00 0.00 0.00 33 1004.1
20260506112230 28 157 16.1 24.1 0.00 0.00 0.00 33 1033.4
20260506111829 28 202 9.7 25.7 0.00 0.00 0.00 33 1069.5
20260506111730 28 135 4.8 25.7 0.00 0.00 0.00 33 969.8
20260506111230 28 157 11.3 29.0 0.00 0.00 0.00 33 1074.0
20260506110731 28 225 16.1 32.2 0.00 0.00 0.00 33 1042.8
20260506110230 28 225 16.1 25.7 0.00 0.00 0.00 33 967.6
20260506105730 28 202 9.7 29.0 0.00 0.00 0.00 32 1078.2
20260506105230 28 202 20.9 32.2 0.00 0.00 0.00 32 1042.8
20260506104730 29 202 20.9 24.1 0.00 0.00 0.00 32 965.4
20260506104529 29 247 12.9 24.1 0.00 0.00 0.00 32 976.7
20260506104230 29 270 12.9 16.1 0.00 0.00 0.00 31 1054.3
20260506103730 30 157 16.1 25.7 0.00 0.00 0.00 30 1039.7
20260506103230 30 180 4.8 20.9 0.00 0.00 0.00 30 1046.3
20260506102730 29 180 19.3 29.0 0.00 0.00 0.00 31 1047.7
20260506102230 29 247 9.7 22.5 0.00 0.00 0.00 31 921.5
20260506101730 28 135 12.9 17.7 0.00 0.00 0.00 31 1055.4
20260506101229 28 135 17.7 19.3 0.00 0.00 0.00 30 1051.4
20260506100730 28 225 11.3 25.7 0.00 0.00 0.00 30 972.3
20260506100230 28 157 6.4 20.9 0.00 0.00 0.00 30 1057.5
20260506095730 28 112 0.0 30.6 0.00 0.00 0.00 30 1042.8
20260506095230 28 225 14.5 19.3 0.00 0.00 0.00 30 1013.5
20260506094730 28 247 16.1 17.7 0.00 0.00 0.00 30 1083.7
20260506094230 28 202 16.1 19.3 0.00 0.00 0.00 30 1071.9
20260506093930 28 180 12.9 25.7 0.00 0.00 0.00 29 1039.7
20260506093730 28 202 17.7 25.7 0.00 0.00 0.00 29 1075.2
20260506093230 28 202 11.3 16.1 0.00 0.00 0.00 29 1010.0
20260506092730 29 225 6.4 12.9 0.00 0.00 0.00 29 968.7
20260506092230 29 157 3.2 12.9 0.00 0.00 0.00 29 991.6
20260506091731 30 180 3.2 19.3 0.00 0.00 0.00 28 1053.1
20260506091231 30 202 8.0 19.3 0.00 0.00 0.00 28 1004.5
20260506090731 31 225 9.7 19.3 0.00 0.00 0.00 28 1044.9
20260506090630 31 157 8.0 19.3 0.00 0.00 0.00 28 1046.1
20260506090231 31 135 0.0 12.9 0.00 0.00 0.00 28 1049.1
20260506085731 31 135 11.3 17.7 0.00 0.00 0.00 28 973.8
20260506085231 31 157 9.7 19.3 0.00 0.00 0.00 28 1034.5
20260506084731 31 225 9.7 14.5 0.00 0.00 0.00 29 1042.8
20260506084231 31 180 6.4 12.9 0.00 0.00 0.00 29 1046.0
20260506083731 31 270 6.4 12.9 0.00 0.00 0.00 28 1054.5
20260506083330 31 202 3.2 14.5 0.00 0.00 0.00 28 1035.2
20260506083231 31 157 14.5 14.5 0.00 0.00 0.00 28 1081.5
20260506082731 31 202 6.4 14.5 0.00 0.00 0.00 28 1043.1
20260506082231 31 202 9.7 14.5 0.00 0.00 0.00 27 1023.1
20260506081731 32 180 1.6 8.0 0.00 0.00 0.00 26 1090.9
20260506081231 33 157 3.2 16.1 0.00 0.00 0.00 26 1092.0
20260506080731 34 180 14.5 14.5 0.00 0.00 0.00 26 1048.5
20260506080231 34 247 3.2 9.7 0.00 0.00 0.00 26 1033.0
20260506073231 33 157 8.0 8.0 0.00 0.00 0.00 30 1084.7
20260506072730 33 157 3.2 11.3 0.00 0.00 0.00 29 991.6
20260506072231 33 202 1.6 3.2 0.00 0.00 0.00 30 1016.7
20260506071731 33 202 3.2 4.8 0.00 0.00 0.00 30 1103.3
20260506071237 33 157 0.0 6.4 2.29 0.00 0.00 31 1069.2
20260506071231 33 157 0.0 6.4 0.00 0.00 0.00 31 1069.2
20260506070731 31 225 3.2 6.4 0.00 0.00 0.00 33 1018.9
20260506070231 30 112 1.6 4.8 0.00 0.00 0.00 33 1017.5
20260506062238 28 135 3.2 6.4 0.00 0.00 0.00 39 1304.9
20260506062231 28 135 3.2 6.4 0.00 0.00 0.00 39 1049.8
20260506062130 28 135 4.8 4.8 0.00 0.00 0.00 39 1072.1
20260506061731 28 45 3.2 9.7 0.00 0.00 0.00 39 1094.0
20260506061231 28 112 6.4 9.7 0.00 0.00 0.00 40 1091.9
20260506060738 28 135 4.8 9.7 0.00 0.00 0.00 41 1056.4
20260506060731 28 135 4.8 9.7 0.00 0.00 0.00 41 1056.4
20260506060231 27 112 3.2 6.4 0.00 0.00 0.00 43 1078.4
20260506051231 20 22 4.8 11.3 0.00 0.00 0.00 58 1055.4
20260506050731 19 22 4.8 12.9 0.00 0.00 0.00 60 1081.5
20260506050231 18 45 4.8 11.3 0.00 0.00 0.00 63 1090.9
20260506044731 16 67 4.8 8.0 0.00 0.00 0.00 74 1039.7
20260506044230 14 22 8.0 11.3 0.00 0.00 0.00 77 988.4
20260506043731 12 22 4.8 12.9 0.00 0.00 0.00 75 1042.8
20260506043231 12 67 9.7 12.9 0.00 0.00 0.00 75 1075.2
20260506042731 12 67 12.9 12.9 0.00 0.00 0.00 74 1094.1
20260506042231 12 90 3.2 11.3 0.00 0.00 0.00 74 1045.9
20260506041731 12 67 11.3 11.3 0.00 0.00 0.00 73 1084.6
20260506041231 13 135 3.2 9.7 0.00 0.00 0.00 73 1046.0
20260506040930 13 112 4.8 14.5 0.00 0.00 0.00 72 1042.8
20260506040731 13 67 4.8 14.5 0.00 0.00 0.00 72 1058.5
20260506040231 13 112 6.4 12.9 0.00 0.00 0.00 73 1087.8
20260506035731 13 67 9.7 12.9 0.00 0.00 0.00 76 1036.5
20260506035231 13 45 3.2 9.7 0.00 0.00 0.00 78 1072.1
20260506034731 12 337 6.4 12.9 0.00 0.00 0.00 80 1082.4
20260506034231 12 45 3.2 8.0 0.00 0.00 0.00 80 1049.1
20260506033731 11 67 3.2 12.9 0.00 0.00 0.00 80 995.3
20260506033630 11 90 6.4 12.9 0.00 0.00 0.00 80 927.0
20260506033231 11 45 9.7 9.7 0.00 0.00 0.00 80 1030.3
20260506032731 11 67 4.8 11.3 0.00 0.00 0.00 80 1090.3
20260506032231 11 112 0.0 16.1 0.00 0.00 0.00 79 1043.1
20260506031731 11 67 16.1 16.1 0.00 0.00 0.00 79 1078.4
20260506031231 11 67 4.8 12.9 0.00 0.00 0.00 79 997.9
20260506030731 11 22 12.9 12.9 0.00 0.00 0.00 78 1055.4
20260506030330 11 45 6.4 11.3 0.00 0.00 0.00 78 1089.8
20260506030231 11 67 6.4 11.3 0.00 0.00 0.00 78 1084.6
20260506025731 11 45 4.8 11.3 0.00 0.00 0.00 77 1075.2
20260506025231 11 22 4.8 11.3 0.00 0.00 0.00 77 1087.8
20260506024731 11 45 4.8 9.7 0.00 0.00 0.00 77 1046.0
20260506024231 11 45 4.8 9.7 0.00 0.00 0.00 76 1084.7
20260506023731 11 45 3.2 11.3 0.00 0.00 0.00 76 1081.4
20260506023231 11 90 1.6 11.3 0.00 0.00 0.00 76 1055.2
20260506023030 11 22 6.4 9.7 0.00 0.00 0.00 76 1008.3
20260506022731 11 45 6.4 9.7 0.00 0.00 0.00 76 1055.4
20260506022231 11 45 1.6 8.0 0.00 0.00 0.00 76 988.4
20260506021731 11 90 6.4 9.7 0.00 0.00 0.00 75 1072.1
20260506021231 11 22 4.8 12.9 0.00 0.00 0.00 75 1078.4
20260506020731 11 22 6.4 11.3 0.00 0.00 0.00 75 1026.6
20260506020231 11 45 1.6 11.3 0.00 0.00 0.00 75 1065.8
20260506015730 11 22 0.0 6.4 0.00 0.00 0.00 75 1078.4
20260506015231 11 45 3.2 11.3 0.00 0.00 0.00 75 1081.5
20260506014732 11 45 3.2 11.3 0.00 0.00 0.00 75 1078.3
20260506014231 11 22 6.4 9.7 0.00 0.00 0.00 75 1036.6
20260506013732 11 45 3.2 9.7 0.00 0.00 0.00 75 1087.8
20260506013231 11 22 3.2 8.0 0.00 0.00 0.00 74 1027.1
20260506012731 11 45 3.2 9.7 0.00 0.00 0.00 74 1065.7
20260506012430 11 45 9.7 9.7 0.00 0.00 0.00 74 1010.4
20260506012231 11 90 3.2 8.0 0.00 0.00 0.00 74 1033.4
20260506011731 11 22 4.8 12.9 0.00 0.00 0.00 74 1075.2
20260506011231 11 45 8.0 14.5 0.00 0.00 0.00 74 994.7
20260506010731 11 45 8.0 16.1 0.00 0.00 0.00 74 1046.0
20260506010231 11 22 4.8 8.0 0.00 0.00 0.00 74 1075.2
20260506005731 11 270 4.8 19.3 0.00 0.00 0.00 75 1062.7
20260506005231 11 90 12.9 17.7 0.00 0.00 0.00 75 1039.7
20260506005130 11 67 9.7 9.7 0.00 0.00 0.00 75 1055.4
20260506004731 11 270 3.2 8.0 0.00 0.00 0.00 75 1042.8
20260506004239 11 22 3.2 17.7 0.00 0.00 0.00 75 1027.1
20260506004231 11 22 3.2 17.7 0.00 0.00 0.00 75 1027.1
20260506003731 12 22 8.0 12.9 0.00 0.00 0.00 75 1012.9
20260506003231 12 67 1.6 9.7 0.00 0.00 0.00 75 1060.3
20260506002731 12 0 3.2 9.7 0.00 0.00 0.00 75 1042.1
20260506002231 12 45 0.0 4.8 0.00 0.00 0.00 75 1053.4
20260506001831 12 45 1.6 9.7 0.00 0.00 0.00 75 1080.8
20260506001731 12 22 1.6 9.7 0.00 0.00 0.00 75 1060.9
20260506001231 12 45 4.8 9.7 0.00 0.00 0.00 75 1043.3
20260506000731 12 0 6.4 6.4 0.00 0.00 0.00 75 989.4
20260506000232 12 0 3.2 8.0 0.00 0.00 0.00 75 1049.0
20260505235732 12 22 3.2 8.0 0.00 0.00 0.00 75 1083.2
20260505235231 12 67 8.0 14.5 0.00 0.00 0.00 75 956.0
20260505234731 12 22 6.4 11.3 0.00 0.00 0.00 75 964.8
20260505234531 12 22 8.0 11.3 0.00 0.00 0.00 75 1032.0
20260505234232 12 90 3.2 12.9 0.00 0.00 0.00 75 1078.4
20260505233732 12 45 4.8 9.7 0.00 0.00 0.00 75 1050.2
20260505233232 13 22 3.2 14.5 0.00 0.00 0.00 75 1081.5
20260505232732 13 0 11.3 11.3 0.00 0.00 0.00 75 1078.4
20260505232232 13 0 3.2 12.9 0.00 0.00 0.00 75 1081.6
20260505231732 13 45 4.8 12.9 0.00 0.00 0.00 75 1007.7
20260505231231 13 0 11.3 11.3 0.00 0.00 0.00 75 1104.9
20260505230732 13 0 3.2 14.5 0.00 0.00 0.00 75 1087.8
20260505230232 13 0 14.5 14.5 0.00 0.00 0.00 75 1012.4
20260505225732 13 0 6.4 14.5 0.00 0.00 0.00 74 963.6
20260505225232 14 0 4.8 12.9 0.00 0.00 0.00 74 1081.5
20260505224732 14 22 4.8 8.0 0.00 0.00 0.00 74 946.6
20260505224232 14 45 0.0 16.1 0.00 0.00 0.00 74 1007.0
20260505223931 14 67 8.0 16.1 0.00 0.00 0.00 73 1090.9
20260505223732 14 67 4.8 8.0 0.00 0.00 0.00 73 922.9
20260505223232 14 0 3.2 9.7 0.00 0.00 0.00 73 1002.5